Wind_Speed
38 37 37 33 28 24 22 16 13 26 19 22 16 10 6 10 13 11 14 13 11 10 10 8 8 10 10 7 7 7 5 5 5 6 11 13 11 12 14 14 13 14 16 15
37 38 34 35 31 28 28 27 18 24 26 23 17 11 12 16 16 13 11 14 15 11 11 10 7 10 11 10 8 8 6 5 4 6 7 10 11 11 9 11 13 14 16 18
37 31 32 34 34 32 32 30 26 24 38 15 24 13 10 11 25 15 9 12 19 15 13 12 11 10 11 12 10 9 9 6 4 6 6 7 9 9 9 9 11 14 16 17
33 33 37 32 36 33 34 30 17 14 25 25 26 3 15 7 12 14 12 12 18 17 18 16 14 13 13 14 13 11 10 9 7 7 7 4 9 8 6 7 9 11 12 16
31 34 38 39 33 35 36 32 21 23 21 31 20 10 10 13 14 8 10 8 17 16 18 22 21 16 15 15 16 15 12 10 9 9 9 6 6 8 6 6 5 6 11 12
31 33 35 41 33 36 37 30 17 23 17 22 20 19 19 14 12 15 18 18 9 11 17 18 20 18 15 15 16 15 14 12 10 11 10 10 7 6 6 6 4 2 7 9
35 39 36 41 37 35 40 39 30 21 22 15 16 18 25 14 15 24 17 17 16 17 17 20 20 18 15 15 16 17 17 15 13 10 11 11 11 9 9 7 5 4 5 6
34 36 38 40 40 38 43 47 33 22 15 11 15 28 29 25 22 23 18 9 20 26 17 19 26 23 17 18 19 17 18 17 16 14 11 11 14 13 9 7 6 5 4 8
16 30 28 34 31 28 44 41 33 21 19 19 24 30 28 28 33 22 24 24 29 11 19 15 28 25 28 26 24 21 20 19 19 19 15 11 12 13 13 11 9 5 3 6
30 30 32 25 29 30 42 39 35 26 19 21 23 24 31 34 31 29 32 34 23 20 22 24 25 33 30 29 25 25 26 21 22 21 19 16 14 14 12 11 9 9 8 6
37 28 30 29 30 38 42 44 42 36 35 30 23 28 32 37 39 31 28 29 27 27 27 22 30 24 31 21 27 25 24 25 23 23 22 20 18 16 15 14 13 12 10 9
41 35 40 35 24 31 37 33 44 43 35 34 36 30 32 33 31 35 32 31 32 32 32 29 27 23 26 30 29 35 30 25 23 24 23 22 20 18 16 13 11 10 10 9
38 33 33 26 31 37 36 37 36 47 40 37 35 25 31 37 33 28 33 33 35 35 32 26 29 26 26 17 12 36 32 26 23 24 23 22 22 21 20 17 16 14 13 13
41 40 35 29 29 29 38 43 36 48 45 32 34 31 33 39 41 25 26 30 27 29 30 26 27 27 21 16 15 16 20 24 35 30 27 25 26 24 23 21 20 19 18 18
41 36 37 29 30 33 36 37 43 43 48 33 35 31 32 38 38 30 23 23 23 25 28 28 27 28 27 25 23 24 22 23 18 16 32 26 21 26 26 25 25 24 22 21
42 47 42 39 33 30 33 32 42 50 47 41 48 37 26 31 30 26 23 24 29 26 27 29 27 28 30 28 29 27 27 24 23 21 27 11 24 25 23 26 23 23 23 23
43 49 43 45 38 29 31 33 36 47 42 57 60 57 50 29 23 23 23 25 24 22 27 29 32 32 33 33 33 34 33 31 30 30 24 22 22 16 13 18 19 25 19 22
40 50 56 43 51 43 35 37 40 37 36 54 56 64 65 60 54 29 27 30 30 27 23 30 34 37 37 37 37 38 38 38 37 34 33 30 27 22 16 16 22 18 19 19
41 39 45 45 47 50 44 43 41 24 35 48 55 59 60 58 50 36 32 29 37 38 33 31 31 36 40 41 41 41 41 41 40 38 37 35 33 28 23 22 23 24 23 20
20 27 36 38 43 38 47 50 39 35 36 36 51 56 63 58 54 54 54 42 35 28 32 36 39 41 40 43 46 46 45 44 45 44 43 41 40 36 31 30 27 30 30 30
24 24 26 27 33 36 41 38 40 35 41 41 41 45 58 64 65 64 56 55 49 47 45 47 47 45 43 45 48 48 48 47 47 47 46 44 43 43 40 36 34 34 35 36
20 23 29 32 33 38 35 36 38 33 32 36 46 52 49 50 59 67 69 64 59 57 57 56 57 56 55 54 52 51 52 51 50 50 49 47 47 46 45 44 41 39 39 40
25 23 24 30 35 36 37 39 40 41 36 32 34 33 38 47 53 52 57 57 53 52 52 54 57 59 58 57 56 54 53 52 52 52 53 52 50 50 49 48 48 47 45 43
23 25 26 27 31 34 36 36 36 38 41 42 41 42 42 40 38 49 59 47 46 45 47 49 50 53 55 55 56 55 55 54 54 53 53 53 53 53 52 52 51 50 51 51
27 28 24 26 30 32 36 37 35 34 34 36 39 43 45 43 41 38 37 43 47 50 47 45 45 46 49 51 52 52 52 53 53 53 53 53 54 54 54 54 54 54 54 55
24 30 31 27 30 32 34 38 32 37 36 36 37 38 40 41 39 38 39 42 43 43 43 44 45 47 47 49 50 50 49 50 51 51 52 53 54 54 56 57 56 56 56 57
Wind_Direction
212 211 215 214 213 208 199 189 210 214 226 246 247 226 213 192 199 216 215 213 218 221 217 212 201 184 183 189 197 178 164 136 126 97 95 98 91 77 87 87 90 91 102 106
212 209 212 213 208 204 200 192 205 233 240 245 230 212 241 251 239 222 222 221 227 218 236 223 202 211 196 193 195 186 174 191 148 121 98 94 93 83 68 82 92 94 100 101
214 209 210 214 206 200 200 200 205 232 254 218 250 208 237 261 236 232 215 215 226 222 219 222 213 209 218 196 202 192 181 202 187 151 128 122 93 79 59 68 85 95 100 104
213 210 207 203 214 199 200 190 210 251 255 266 246 122 201 227 215 237 234 230 231 240 224 232 227 209 215 213 203 195 188 193 207 180 158 159 114 95 74 55 73 89 97 102
208 211 212 201 205 198 194 177 207 231 253 246 225 232 244 263 194 265 247 283 238 238 217 226 231 222 213 216 211 202 192 192 206 191 185 181 124 120 96 89 94 91 105 100
206 210 217 210 197 196 182 166 218 239 236 245 238 236 258 257 256 246 235 206 191 202 219 210 222 223 214 216 216 211 198 198 213 205 192 184 165 157 128 103 131 112 88 87
203 213 209 216 203 194 181 182 200 217 220 224 200 235 253 241 235 257 258 201 203 200 218 227 225 227 222 217 215 213 209 199 208 223 204 194 181 180 165 161 155 110 70 72
211 215 218 215 212 196 182 191 190 218 205 198 171 236 248 254 256 253 259 193 212 217 213 218 219 219 203 216 214 211 215 209 204 213 211 209 196 183 188 181 163 122 80 69
198 220 225 231 224 207 187 190 185 203 195 175 228 229 245 248 254 255 228 240 243 219 228 231 205 226 211 210 212 207 210 217 213 212 208 207 205 209 193 194 182 171 141 102
195 206 215 210 214 208 202 182 178 179 188 205 226 241 254 249 254 260 254 259 256 253 257 241 221 232 211 204 205 209 206 205 214 211 215 212 207 204 211 204 191 190 189 158
199 200 200 208 211 210 206 192 191 181 201 204 219 224 233 241 247 254 253 263 274 269 262 261 208 221 220 210 208 229 226 211 208 210 211 216 220 216 206 207 198 194 192 192
199 200 213 214 221 217 220 200 200 194 195 218 213 230 232 235 243 240 249 259 266 263 274 267 259 262 224 202 217 226 221 211 216 217 213 213 218 224 225 219 225 210 215 221
209 207 200 204 207 204 212 210 199 198 201 221 218 232 235 233 193 241 232 238 248 257 256 248 247 254 268 247 249 226 231 207 208 216 213 215 220 218 220 220 223 215 215 224
205 208 204 200 205 210 211 212 210 204 211 223 233 234 241 229 227 257 235 228 241 252 247 242 247 253 256 257 266 256 266 204 225 230 212 210 216 219 221 218 216 224 215 216
206 205 196 189 200 229 231 216 206 205 217 236 230 238 239 234 233 245 230 246 234 244 243 244 244 251 250 250 247 241 242 235 220 241 218 215 223 217 213 218 223 217 218 220
209 213 213 202 205 210 228 226 209 215 220 229 227 226 230 228 236 231 230 232 237 239 239 240 244 246 255 252 256 253 254 255 261 272 265 242 231 219 218 220 213 228 226 225
206 209 211 209 210 209 213 220 199 213 226 225 225 222 225 231 223 233 227 226 233 244 236 235 241 243 246 250 252 256 257 258 259 260 263 269 271 258 248 248 220 205 219 226
218 215 224 217 215 217 212 215 207 213 221 226 224 227 236 240 242 245 214 220 227 229 236 240 239 240 243 244 248 251 254 258 259 259 259 256 254 256 254 256 249 240 215 229
221 214 221 232 232 223 213 213 196 211 214 226 224 228 231 244 249 240 232 230 233 237 235 240 245 246 247 248 247 247 251 256 259 260 261 261 260 259 255 249 245 245 245 242
232 216 221 225 231 232 228 221 205 225 216 217 229 227 227 229 238 235 239 246 250 249 245 244 245 246 249 248 251 252 252 254 257 259 261 262 265 264 257 252 246 245 247 243
236 233 232 228 228 229 226 226 228 237 237 233 227 227 230 231 234 238 245 249 250 250 250 252 254 252 251 251 249 251 253 253 254 256 257 259 258 261 261 256 251 247 243 245
234 233 232 232 234 235 232 228 226 234 242 244 246 240 235 234 236 239 240 241 246 250 251 252 254 255 255 255 255 255 254 254 255 257 259 259 260 262 263 263 260 253 250 249
251 240 236 237 235 237 238 235 235 235 238 243 253 252 246 243 242 243 249 250 253 253 253 252 253 255 256 256 255 256 255 256 256 257 258 260 260 260 259 258 260 261 258 254
257 253 248 243 240 241 245 245 243 242 243 247 246 253 252 247 245 245 242 245 248 249 250 253 252 254 257 257 257 257 257 256 256 256 256 257 259 260 261 261 260 259 260 260
254 256 251 250 247 240 247 247 247 245 242 240 241 243 247 248 249 249 250 250 250 252 251 250 251 252 253 256 257 259 260 259 258 258 258 257 257 258 258 259 261 260 259 259
257 251 249 248 250 250 246 250 252 252 249 245 245 245 249 251 251 248 247 249 249 250 251 250 250 252 253 253 255 257 258 259 260 260 260 260 260 260 260 260 260 260 259 260
Height
5843 5851 5856 5863 5869 5876 5881 5883 5887 5885 5886 5891 5895 5893 5895 5895 5897 5900 5902 5905 5910 5914 5916 5920 5922 5924 5926 5928 5931 5933 5934 5934 5935 5937 5940 5942 5941 5941 5941 5940 5940 5939 5939 5938
5839 5845 5853 5857 5864 5870 5875 5878 5881 5881 5883 5886 5890 5892 5897 5899 5900 5900 5901 5906 5910 5914 5916 5919 5923 5926 5926 5929 5931 5933 5936 5935 5936 5938 5939 5941 5942 5942 5943 5944 5941 5942 5942 5940
5833 5844 5847 5853 5858 5864 5870 5875 5876 5880 5879 5884 5884 5883 5892 5893 5897 5899 5901 5904 5908 5913 5915 5918 5921 5925 5927 5929 5931 5933 5936 5937 5938 5939 5940 5939 5939 5943 5946 5947 5947 5945 5943 5942
5829 5836 5839 5846 5854 5859 5865 5873 5874 5874 5875 5881 5884 5882 5890 5892 5897 5899 5900 5904 5907 5910 5914 5916 5920 5924 5926 5928 5930 5932 5934 5937 5938 5939 5941 5941 5944 5945 5947 5948 5949 5947 5947 5945
5829 5830 5835 5838 5848 5854 5862 5870 5871 5876 5879 5878 5880 5881 5887 5890 5892 5893 5896 5899 5903 5906 5910 5916 5919 5922 5923 5927 5929 5931 5933 5936 5937 5939 5941 5943 5947 5948 5949 5949 5950 5951 5950 5949
5822 5827 5831 5834 5841 5848 5860 5863 5865 5869 5875 5871 5876 5879 5880 5888 5888 5891 5895 5895 5901 5904 5908 5911 5915 5919 5922 5925 5927 5930 5933 5935 5937 5940 5941 5943 5948 5950 5949 5950 5952 5954 5954 5954
5815 5820 5825 5830 5835 5841 5852 5857 5860 5865 5867 5872 5877 5878 5874 5883 5886 5887 5892 5893 5896 5901 5906 5909 5912 5916 5921 5925 5926 5927 5930 5933 5935 5938 5943 5945 5946 5950 5953 5952 5954 5956 5956 5956
5811 5817 5822 5825 5829 5837 5845 5851 5857 5862 5866 5872 5876 5873 5874 5879 5883 5883 5891 5893 5894 5897 5901 5900 5906 5913 5919 5921 5923 5924 5926 5930 5933 5935 5941 5944 5945 5946 5949 5953 5954 5957 5957 5957
5808 5814 5820 5823 5832 5840 5841 5846 5857 5861 5866 5868 5869 5871 5872 5876 5872 5882 5888 5891 5895 5895 5899 5899 5900 5907 5910 5912 5915 5919 5923 5926 5929 5932 5937 5942 5945 5943 5947 5950 5954 5956 5957 5956
5799 5805 5811 5818 5825 5832 5834 5847 5849 5854 5863 5868 5868 5869 5871 5870 5875 5878 5882 5884 5887 5892 5897 5901 5901 5900 5903 5909 5910 5914 5916 5920 5924 5926 5929 5935 5941 5943 5943 5946 5950 5954 5956 5957
5796 5805 5808 5811 5818 5824 5829 5836 5843 5850 5854 5858 5859 5862 5864 5863 5866 5872 5876 5877 5881 5885 5886 5892 5898 5895 5870 5901 5908 5911 5916 5917 5921 5924 5925 5928 5933 5935 5940 5945 5947 5950 5951 5954
5791 5800 5801 5807 5818 5821 5827 5833 5842 5843 5851 5848 5853 5857 5857 5861 5863 5869 5871 5870 5870 5879 5882 5888 5890 5893 5894 5898 5904 5905 5906 5913 5916 5921 5924 5925 5930 5933 5934 5938 5945 5948 5949 5949
5791 5795 5798 5804 5809 5813 5819 5828 5833 5840 5843 5840 5847 5852 5853 5853 5845 5862 5865 5867 5869 5872 5881 5886 5891 5893 5891 5892 5898 5898 5894 5903 5913 5914 5918 5922 5926 5929 5930 5932 5938 5942 5947 5949
5784 5786 5793 5797 5801 5805 5811 5816 5831 5834 5836 5833 5836 5844 5847 5849 5848 5852 5855 5862 5866 5868 5872 5876 5883 5885 5890 5893 5896 5894 5895 5902 5905 5904 5911 5914 5917 5925 5926 5927 5933 5937 5941 5946
5781 5782 5787 5793 5796 5802 5806 5814 5824 5829 5827 5825 5831 5834 5841 5841 5844 5851 5855 5858 5861 5863 5866 5869 5876 5881 5885 5889 5892 5895 5898 5897 5901 5901 5906 5909 5914 5916 5918 5922 5925 5931 5934 5939
5773 5777 5782 5787 5791 5795 5801 5807 5814 5821 5815 5817 5825 5833 5831 5835 5841 5846 5849 5853 5857 5860 5862 5865 5868 5874 5877 5881 5883 5886 5888 5892 5895 5897 5899 5904 5909 5910 5913 5914 5920 5925 5929 5932
5767 5773 5776 5783 5786 5793 5796 5800 5804 5802 5806 5813 5823 5827 5823 5828 5835 5844 5848 5851 5855 5856 5860 5864 5865 5868 5872 5875 5878 5880 5882 5886 5889 5893 5898 5898 5901 5904 5908 5908 5913 5918 5921 5925
5765 5767 5769 5774 5779 5786 5791 5792 5795 5792 5797 5805 5816 5820 5818 5821 5830 5836 5842 5846 5850 5854 5856 5859 5863 5865 5867 5872 5873 5875 5879 5881 5885 5888 5891 5895 5900 5904 5906 5911 5911 5913 5914 5919
5757 5761 5766 5769 5773 5780 5783 5787 5786 5781 5793 5797 5804 5813 5818 5820 5824 5829 5835 5837 5841 5847 5852 5855 5855 5860 5863 5865 5869 5872 5873 5874 5877 5881 5884 5886 5890 5896 5901 5905 5908 5909 5912 5911
5749 5755 5759 5764 5766 5769 5774 5779 5781 5773 5786 5789 5795 5803 5808 5817 5820 5820 5822 5828 5836 5839 5841 5844 5848 5853 5855 5858 5859 5862 5867 5870 5871 5873 5875 5878 5880 5886 5892 5896 5899 5902 5904 5906
5746 5749 5752 5755 5756 5759 5765 5770 5773 5768 5780 5783 5787 5790 5797 5806 5809 5813 5817 5821 5824 5828 5831 5833 5837 5841 5847 5849 5851 5852 5855 5858 5861 5863 5866 5868 5872 5876 5879 5884 5888 5892 5895 5897
5741 5744 5746 5748 5750 5751 5756 5760 5764 5768 5769 5773 5775 5783 5790 5793 5796 5797 5800 5807 5811 5814 5818 5821 5823 5828 5833 5836 5840 5842 5844 5848 5850 5853 5856 5859 5861 5863 5866 5869 5875 5880 5885 5887
5735 5737 5738 5741 5740 5743 5747 5752 5755 5760 5764 5765 5766 5770 5775 5778 5780 5783 5790 5795 5797 5801 5804 5807 5810 5813 5816 5820 5824 5827 5832 5836 5838 5839 5841 5844 5848 5851 5855 5858 5860 5863 5868 5873
5727 5728 5730 5732 5733 5735 5737 5742 5747 5751 5755 5757 5760 5760 5761 5765 5769 5773 5778 5781 5782 5788 5792 5794 5797 5800 5803 5805 5808 5812 5815 5820 5823 5826 5829 5831 5835 5837 5840 5844 5847 5852 5855 5858
5720 5720 5723 5724 5724 5727 5728 5731 5735 5740 5744 5747 5749 5750 5749 5753 5759 5763 5766 5766 5771 5775 5780 5782 5785 5788 5791 5793 5795 5799 5802 5805 5808 5811 5814 5817 5820 5822 5824 5828 5831 5836 5839 5842
5710 5710 5713 5715 5714 5717 5719 5720 5725 5726 5730 5735 5737 5740 5741 5742 5747 5751 5754 5755 5758 5761 5765 5768 5772 5775 5778 5781 5783 5785 5787 5790 5792 5795 5798 5801 5803 5806 5809 5813 5816 5819 5823 5826